User: anonymous   Login
Location: Unspecified
(0.0000°N, 0.0000°E)
Time: 23:42:56
(UTC+00:00)
Language:

Altair - Orbit

View from above orbital plane
View from above orbital plane
View from above satellite
View from above satellite

Ground track
Ground track

The orbit data is extracted from the following two-line orbital elements,

1 00050U 60009B   21300.54568036 -.00000083  00000-0  29471-4 0  9992
2 00050  47.2341  18.4603 0113172   6.9483 353.2847 12.20116400730914
Epoch (UTC): 27 October 2021 13:05:46
Eccentricity: 0.0113172
inclination: 47.2341°
perigee height: 1502 km
apogee height: 1682 km
right ascension of ascending node: 18.4603°
argument of perigee: 6.9483°
revolutions per day: 12.20116400
mean anomaly at epoch: 353.2847°
orbit number at epoch: 73091

The dashed part of the orbit path shows where the satellite is in the earth's shadow,  

DLR